[TLELIST] Archives

 

[list_settings.list_name] Current TLEs

January 26th 2021 PST

HST 1 20580U 90037B 21025.92531250 .00000594 00000-0 25050-4 0 9995 2 20580 28.4697 288.0803 0002530 330.3182 183.6713 15.09542431489545 ISS (ZARYA) 1 25544U 98067A 21026.29455175 .00001781 00000-0 40614-4 0 9995 2 25544 51.6464 324.5349 0002308 292.1434 166.6739 15.48892138266603 CXO 1 25867U 99040B 21027.94968716 .00000569 00000-0 00000-0 0 9992 2 25867 58.2344 260.4070 8102288 226.4074 0.2394 0.37805068 9902 ____________________________________________________________________ These 2-Line ...Continue Reading

[list_settings.list_name] Current TLEs

January 25th 2021 PST

HST 1 20580U 90037B 21024.91950182 .00000502 00000-0 19496-4 0 9998 2 20580 28.4699 294.7343 0002504 318.7831 118.4427 15.09541180489393 ISS (ZARYA) 1 25544U 98067A 21025.32718219 .00001091 00000-0 28047-4 0 9999 2 25544 51.6462 329.3197 0002267 288.7769 172.4159 15.48884919266453 CXO 1 25867U 99040B 21027.94910351 .00000569 00000-0 00000+0 0 9993 2 25867 58.2343 260.4071 8102305 226.4075 0.1598 0.37804250 21049 ____________________________________________________________________ These 2-Line ...Continue Reading

[list_settings.list_name] Current TLEs

January 24th 2021 PST

HST 1 20580U 90037B 21023.92702125 .00000504 00000-0 19569-4 0 9993 2 20580 28.4701 301.3001 0002484 307.2707 125.7796 15.09540527489243 ISS (ZARYA) 1 25544U 98067A 21024.36042583 .00000945 00000-0 25399-4 0 9990 2 25544 51.6467 334.1031 0002287 284.1664 182.8536 15.48881573266306 CXO 1 25867U 99040B 21025.30474678 .00000474 00000-0 00000-0 0 9994 2 25867 58.2889 260.4988 8097747 226.3937 0.2373 0.37803455 9909 ____________________________________________________________________ These 2-Line ...Continue Reading

[list_settings.list_name] Current TLEs

January 23rd 2021 PST

HST 1 20580U 90037B 21023.15859955 .00000492 00000-0 18885-4 0 9998 2 20580 28.4703 306.3836 0002474 298.4303 270.4737 15.09539991489288 ISS (ZARYA) 1 25544U 98067A 21023.33808610 .00000373 00000-0 14973-4 0 9998 2 25544 51.6468 339.1597 0002201 281.6805 241.0421 15.48877664266143 CXO 1 25867U 99040B 21025.30474678 .00000474 00000-0 00000-0 0 9994 2 25867 58.2889 260.4988 8097747 226.3937 0.2373 0.37803455 9909 ____________________________________________________________________ These 2-Line ...Continue Reading

[list_settings.list_name] Current TLEs

January 22nd 2021 PST

HST 1 20580U 90037B 21022.15269675 .00000489 00000-0 18692-4 0 9993 2 20580 28.4706 313.0380 0002461 286.7833 204.8642 15.09539358489131 ISS (ZARYA) 1 25544U 98067A 21022.35890215 .00009768 00000-0 18598-3 0 9994 2 25544 51.6458 343.9984 0002264 282.6928 176.5472 15.48884276265998 CXO 1 25867U 99040B 21025.30353597 .00000474 00000-0 00000+0 0 9999 2 25867 58.2890 260.4991 8097753 226.3937 0.0709 0.37802975 21037 ____________________________________________________________________ These 2-Line ...Continue Reading

[list_settings.list_name] Current TLEs

January 21st 2021 PST

HST 1 20580U 90037B 21020.94958787 .00000490 00000-0 18732-4 0 9994 2 20580 28.4708 320.9968 0002456 272.6004 147.9838 15.09538620488796 ISS (ZARYA) 1 25544U 98067A 21021.39156028 .00000107 00000-0 99803-5 0 9992 2 25544 51.6457 348.7866 0000446 316.5433 144.8341 15.49302983265845 CXO 1 25867U 99040B 21022.65930144 .00000391 00000-0 00000-0 0 9992 2 25867 58.3436 260.5847 8092398 226.3891 0.1422 0.37801998 9880 ____________________________________________________________________ These 2-Line ...Continue Reading

[list_settings.list_name] Current TLEs

January 20th 2021 PST

HST 1 20580U 90037B 21019.95710937 .00000463 00000-0 17117-4 0 9992 2 20580 28.4709 327.5623 0002471 261.0501 155.3797 15.09537892488640 ISS (ZARYA) 1 25544U 98067A 21020.42490477 -.00000015 00000-0 77934-5 0 9994 2 25544 51.6454 353.5712 0000394 310.6558 155.6518 15.49301528265694 CXO 1 25867U 99040B 21022.65930144 .00000391 00000-0 00000-0 0 9992 2 25867 58.3436 260.5847 8092398 226.3891 0.1422 0.37801998 9880 ____________________________________________________________________ These 2-Line ...Continue Reading

[list_settings.list_name] Current TLEs

January 19th 2021 PST

HST 1 20580U 90037B 21019.18795139 .00000444 00000-0 15912-4 0 9994 2 20580 28.4710 332.6506 0002476 252.1106 296.1712 15.09537364488685 ISS (ZARYA) 1 25544U 98067A 21019.26407080 .00000787 00000-0 22186-4 0 9995 2 25544 51.6466 359.3118 0000279 283.9595 183.5470 15.49302228265512 CXO 1 25867U 99040B 21020.01556094 .00000345 00000-0 00000-0 0 9997 2 25867 58.3870 260.6562 8086119 226.4016 0.2574 0.37802522 9884 ____________________________________________________________________ These 2-Line ...Continue Reading

[list_settings.list_name] Current TLEs

January 18th 2021 PST

HST 1 20580U 90037B 21017.59662416 .00000496 00000-0 19107-4 0 9995 2 20580 28.4711 343.1776 0002523 233.6918 289.6457 15.09536679488445 ISS (ZARYA) 1 25544U 98067A 21018.42396323 .00000576 00000-0 18407-4 0 9996 2 25544 51.6467 3.4695 0000261 274.2255 184.5001 15.49299389265386 CXO 1 25867U 99040B 21020.01556094 .00000345 00000-0 00000-0 0 9997 2 25867 58.3870 260.6562 8086119 226.4016 0.2574 0.37802522 9884 ____________________________________________________________________ These 2-Line ...Continue Reading

[list_settings.list_name] Current TLEs

January 17th 2021 PST

HST 1 20580U 90037B 21016.33170597 .00000506 00000-0 19725-4 0 9998 2 20580 28.4712 351.5455 0002556 219.1525 256.5758 15.09535926488094 ISS (ZARYA) 1 25544U 98067A 21017.40142150 .00000564 00000-0 18190-4 0 9996 2 25544 51.6463 8.5294 0000314 253.5754 258.1853 15.49297023265225 CXO 1 25867U 99040B 21020.01520355 .00000345 00000-0 00000+0 0 9997 2 25867 58.3870 260.6563 8086109 226.4015 0.2089 0.37802799 21019 ____________________________________________________________________ These 2-Line ...Continue Reading
  • This mailing list is a public mailing list - anyone may join or leave, at any time.
  • This mailing list is announce-only.

International Space Station (ISS) / Hubble Space Telescope (HST) / Chandra X-Ray Observatory Orbital Data via EMAIL

Privacy Policy:

Private list